Location: Arroyo Grande
(40.2671°N, 4.2512°W)
Time: 06:42:13
(UTC+00:00)

Cosmos 540 Rocket - Pass Details

Date: 03 February 2023
Orbit: 740 x 751 km, 74.1° (Epoch: 26 March)

Event Time Altitude Azimuth Distance (km) Brightness Sun altitude
Rises 18:32:40 0° 347° (NNW) 3,203 6.7 -10.9°
Reaches altitude 10° 18:35:09 10° 354° (N) 2,273 5.9 -11.3°
Maximum altitude 18:40:03 43° 66° (ENE) 1,038 3.7 -12.3°
Drops below altitude 10° 18:44:54 10° 138° (SE) 2,251 5.6 -13.2°
Sets 18:47:21 0° 145° (SE) 3,169 6.4 -13.6°
